TimeMST,TemperatureF,Dew PointF,Humidity,Sea Level PressureIn,VisibilityMPH,Wind Direction,Wind SpeedMPH,Gust SpeedMPH,PrecipitationIn,Events,Conditions,WindDirDegrees,DateUTC
12:53 AM,28.0,25.0,88,30.01,10.0,West,5.8,-,N/A,,Clear,270,2012-11-19 07:53:00
1:53 AM,35.1,28.9,78,30.03,10.0,NE,9.2,-,N/A,,Clear,40,2012-11-19 08:53:00
2:53 AM,30.9,27.0,85,30.05,10.0,West,6.9,-,N/A,,Clear,280,2012-11-19 09:53:00
3:53 AM,27.0,24.1,89,30.08,10.0,West,4.6,-,N/A,,Clear,260,2012-11-19 10:53:00
4:53 AM,28.0,24.1,85,30.12,10.0,WNW,10.4,-,N/A,,Clear,290,2012-11-19 11:53:00
5:53 AM,28.9,26.1,89,30.16,10.0,West,9.2,-,N/A,,Clear,280,2012-11-19 12:53:00
6:53 AM,28.0,24.1,85,30.19,10.0,NW,5.8,-,N/A,,Clear,320,2012-11-19 13:53:00
7:53 AM,33.1,28.9,85,30.22,10.0,NW,3.5,-,N/A,,Clear,310,2012-11-19 14:53:00
8:53 AM,39.9,30.9,70,30.20,10.0,Calm,Calm,-,N/A,,Clear,0,2012-11-19 15:53:00
9:53 AM,46.9,27.0,46,30.19,10.0,Calm,Calm,-,N/A,,Clear,0,2012-11-19 16:53:00
10:53 AM,48.9,28.0,44,30.19,10.0,Calm,Calm,-,N/A,,Clear,0,2012-11-19 17:53:00
11:53 AM,54.0,30.0,40,30.17,10.0,Calm,Calm,-,N/A,,Clear,0,2012-11-19 18:53:00
12:53 PM,61.0,32.0,34,30.12,10.0,West,19.6,26.5,N/A,,Clear,270,2012-11-19 19:53:00
1:53 PM,61.0,30.9,32,30.10,10.0,West,15.0,21.9,N/A,,Clear,260,2012-11-19 20:53:00
2:53 PM,60.1,30.0,32,30.11,10.0,West,13.8,-,N/A,,Clear,260,2012-11-19 21:53:00
3:53 PM,55.9,30.9,39,30.14,10.0,WSW,5.8,-,N/A,,Clear,240,2012-11-19 22:53:00
4:53 PM,46.0,30.0,54,30.17,10.0,SSW,5.8,-,N/A,,Clear,200,2012-11-19 23:53:00
5:53 PM,39.9,28.0,63,30.20,10.0,SSW,5.8,-,N/A,,Clear,200,2012-11-20 00:53:00
6:53 PM,35.1,27.0,72,30.23,10.0,NNW,9.2,-,N/A,,Clear,330,2012-11-20 01:53:00
7:53 PM,32.0,25.0,75,30.23,10.0,South,3.5,-,N/A,,Clear,190,2012-11-20 02:53:00
8:53 PM,32.0,25.0,75,30.22,10.0,WSW,3.5,-,N/A,,Clear,240,2012-11-20 03:53:00
9:53 PM,28.0,24.1,85,30.20,10.0,WSW,5.8,-,N/A,,Clear,250,2012-11-20 04:53:00
10:53 PM,26.1,21.9,84,30.20,10.0,West,8.1,-,N/A,,Clear,280,2012-11-20 05:53:00
11:53 PM,27.0,23.0,85,30.19,10.0,West,8.1,-,N/A,,Clear,280,2012-11-20 06:53:00